Regional Weather Roundup
Issued by NWS

Home | Current Version | Previous Version | Graphics & Text | Print | Product List | Glossary On
Versions: 1 2 3 4 5 6 7 8 9 10 11 12 13 14 15 16 17 18 19 20 21 22 23 24 25 26 27 28 29 30 31 32 33 34 35 36 37 38 39 40 41 42 43 44 45 46 47 48 49 50
000
ASUS43 KOAX 221210
RWRNE

WEATHER ROUNDUP FOR NEBRASKA
NATIONAL WEATHER SERVICE OMAHA NE
700 AM CDT MON MAY 22 2017

NOTES: SATELLITE DATA IS BEING USED TO AUGMENT CLOUD COVER ABOVE
       12000 FEET.
       "FAIR" INDICATES FEW OR NO CLOUDS BELOW 12,000 FEET WITH NO
       SIGNIFICANT WEATHER AND/OR OBSTRUCTIONS TO VISIBILITY.

  * THESE STATIONS DO NOT REPORT WEATHER SUCH AS RAIN...SNOW OR FOG.

NEZ001>004-019>022-054>056-221300-
NEBRASKA PANHANDLE

CITY           SKY/WX    TMP DP  RH WIND       PRES   REMARKS
SCOTTSBLUFF    CLEAR     38  50 100 NW6       30.11F WCI  33
6HR MIN TEMP:  38; 6HR MAX TEMP:  44;

ALLIANCE       CLEAR     33  32  96 W7        30.06F WCI  27
6HR MIN TEMP:  32; 6HR MAX TEMP:  39;

CHADRON        CLEAR     39  36  89 W3        30.04F
6HR MIN TEMP:  38; 6HR MAX TEMP:  45;

GORDON         FAIR      38  35  91 CALM      30.03S
6HR MIN TEMP:  37; 6HR MAX TEMP:  44;

KIMBALL        CLEAR     39  36  87 W10       30.14S WCI  33
SIDNEY         CLEAR     39  37  92 NW10      30.12F WCI  32
6HR MIN TEMP:  35; 6HR MAX TEMP:  43;

$$

NEZ057>060-069>072-079>082-221300-
SOUTHWEST NEBRASKA

CITY           SKY/WX    TMP DP  RH WIND       PRES   REMARKS
NORTH PLATTE   CLEAR     41  40  96 W6        30.07S
6HR MIN TEMP:  38; 6HR MAX TEMP:  51;

IMPERIAL       CLOUDY    49  43  80 W13       30.10S
6HR MIN TEMP:  48; 6HR MAX TEMP:  53;

LEXINGTON      PTCLDY    46  44  90 W3        30.06S
MCCOOK         PTCLDY    49  49 100 W7        30.07F
6HR MIN TEMP:  49; 6HR MAX TEMP:  57; 6HR PCP: TRACE;

OGALLALA       CLEAR     42  40  93 W7        30.09S
$$

NEZ005>010-023>029-035>040-094-221300-
NORTH CENTRAL NEBRASKA

CITY           SKY/WX    TMP DP  RH WIND       PRES   REMARKS
VALENTINE      CLEAR     44  39  82 W7        30.00F
6HR MIN TEMP:  42; 6HR MAX TEMP:  48;

AINSWORTH      CLEAR     45  42  90 W9        29.99F
BROKEN BOW     CLEAR     44  41  89 CALM      30.03R
6HR MIN TEMP:  42; 6HR MAX TEMP:  50;

O`NEILL        CLEAR     49  42  75 W9        29.97F
ORD            CLEAR     44  41  89 SW6       30.01R
6HR MIN TEMP:  42; 6HR MAX TEMP:  51;

THEDFORD       CLEAR     42  40  93 W6        30.04F
$$

NEZ041-046>049-061>064-073>077-083>087-221300-
SOUTH CENTRAL NEBRASKA

CITY           SKY/WX    TMP DP  RH WIND       PRES   REMARKS
GRAND ISLAND   CLOUDY    52  48  86 W10       30.03S
6HR MIN TEMP:  52; 6HR MAX TEMP:  59;

AURORA         CLOUDY    53  48  85 W7        30.01S
HASTINGS       CLOUDY    54  47  77 W9        30.04S
6HR MIN TEMP:  54; 6HR MAX TEMP:  58;

HEBRON         MOCLDY    56  53  89 SW7       30.02F
HOLDREGE       CLOUDY    52  46  82 W9        30.05S
KEARNEY *      CLOUDY    54  45  71 W8        30.04F
YORK           CLOUDY    54  48  82 W9        30.01S
$$

NEZ011>018-030>034-042>045-221300-
NORTHEAST NEBRASKA

CITY           SKY/WX    TMP DP  RH WIND       PRES   REMARKS
NORFOLK        CLEAR     51  44  77 W9        29.96S
6HR MIN TEMP:  47; 6HR MAX TEMP:  57;

ALBION         PTCLDY    49  44  83 W3        30.00R
BLAIR          CLOUDY    55  48  78 SW8       29.96S
FREMONT        PTCLDY    55  46  73 W8        29.97S
TEKAMAH        CLOUDY    51  45  79 S8        29.95S
6HR MIN TEMP:  50; 6HR MAX TEMP:  54;

WAYNE          CLEAR     52  47  84 W5        29.95R
$$

NEZ050>053-065>068-078-088>093-221300-
SOUTHEAST NEBRASKA

CITY           SKY/WX    TMP DP  RH WIND       PRES   REMARKS
LINCOLN        CLOUDY    57  50  77 SW10      30.00S
6HR MIN TEMP:  47; 6HR MAX TEMP:  58;

OMAHA EPPLEY   CLOUDY    55  47  74 E8        29.97S
6HR MIN TEMP:  49; 6HR MAX TEMP:  55;

BEATRICE       CLOUDY    58  54  85 SW8       30.02R
FALLS CITY     MOCLDY    56  50  80 S5        30.02F
6HR MIN TEMP:  51; 6HR MAX TEMP:  56; 6HR PCP: TRACE;

NEBRASKA CITY  CLOUDY    56  49  77 SW8       29.99F
PLATTSMOUTH    CLOUDY    55  48  75 SW8       29.98S
$$

NEZ044-045-051>053-067-221300-
OMAHA AREA

CITY           SKY/WX    TMP DP  RH WIND       PRES   REMARKS
OMAHA EPPLEY   CLOUDY    55  47  74 E8        29.97S
6HR MIN TEMP:  49; 6HR MAX TEMP:  55;

BLAIR          CLOUDY    55  48  78 SW8       29.96S
FREMONT        PTCLDY    55  46  73 W8        29.97S
MILLARD        MOCLDY    59  51  75 W7        29.98R
OFFUTT AFB     MOCLDY    53  50  91 VRB3      29.99R
PLATTSMOUTH    CLOUDY    55  48  75 SW8       29.98S
WAHOO          FAIR      55  47  75 W8        29.97S
$$




USA.gov is the U.S. government's official web portal to all federal, state and local government web resources and services.